This is the latest recevied weather packets stored in our database for station/object N5COP-13. If no packets are shown the sender has not sent any weather packets the latest 1 day(s).
| Time | Temp. | Humidity | Pressure | Rain* | Wind** | Luminosity | Snow |
|---|---|---|---|---|---|---|---|
| 1778005915 | 16.67° C | 42% | 1011.6 hPa | 0 mm | 4.92 m/s, 25° | 381 W/m² | - |
| 1778005611 | 17.22° C | 42% | 1011.4 hPa | 0 mm | 4.47 m/s, 43° | 447 W/m² | - |
| 1778005308 | 16.67° C | 43% | 1011.4 hPa | 0 mm | 1.79 m/s, 37° | 617 W/m² | - |
| 1778005004 | 16.67° C | 44% | 1011.5 hPa | 0 mm | 2.68 m/s, 339° | 456 W/m² | - |
| 1778004702 | 16.67° C | 44% | 1011.5 hPa | 0 mm | 4.47 m/s, 47° | 537 W/m² | - |
| 1778004398 | 16.67° C | 44% | 1011.7 hPa | 0 mm | 4.47 m/s, 22° | 624 W/m² | - |
| 1778004095 | 16.67° C | 44% | 1011.5 hPa | 0 mm | 4.02 m/s, 28° | 480 W/m² | - |
| 1778003791 | 16.67° C | 43% | 1011.7 hPa | 0 mm | 3.13 m/s, 40° | 493 W/m² | - |
| 1778003482 | 16.67° C | 43% | 1012 hPa | 0 mm | 3.58 m/s, 20° | 621 W/m² | - |
| 1778003179 | 16.67° C | 42% | 1012 hPa | 0 mm | 1.79 m/s, 31° | 487 W/m² | - |
| 1778002875 | 16.67° C | 43% | 1012 hPa | 0 mm | 4.92 m/s, 3° | 855 W/m² | - |
| 1778002572 | 16.67° C | 42% | 1012.1 hPa | 0 mm | 1.79 m/s, 32° | 590 W/m² | - |
| 1778002268 | 17.22° C | 42% | 1011.8 hPa | 0 mm | 4.47 m/s, 341° | 1031 W/m² | - |
| 1778001966 | 17.22° C | 43% | 1011.6 hPa | 0 mm | 6.26 m/s, 33° | 952 W/m² | - |
| 1778001663 | 16.67° C | 43% | 1011.6 hPa | 0 mm | 4.02 m/s, 38° | 1022 W/m² | - |
| 1778001357 | 16.67° C | 42% | 1011.5 hPa | 0 mm | 6.71 m/s, 31° | 860 W/m² | - |
| 1778001055 | 17.22° C | 44% | 1011.8 hPa | 0 mm | 4.02 m/s, 22° | 914 W/m² | - |
| 1778000751 | 16.67° C | 45% | 1011.7 hPa | 0 mm | 8.05 m/s, 70° | 873 W/m² | - |
| 1778000448 | 16.11° C | 45% | 1011.8 hPa | 0 mm | 4.02 m/s, 54° | 815 W/m² | - |
| 1778000143 | 16.11° C | 44% | 1011.8 hPa | 0 mm | 4.47 m/s, 40° | 954 W/m² | - |
| 1777999839 | 16.11° C | 44% | 1011.4 hPa | 0 mm | 4.92 m/s, 34° | 814 W/m² | - |
| 1777999535 | 15.56° C | 44% | 1011.5 hPa | 0 mm | 4.02 m/s, 49° | 554 W/m² | - |
| 1777999233 | 15.56° C | 44% | 1011.8 hPa | 0 mm | 4.92 m/s, 23° | 820 W/m² | - |
| 1777998931 | 16.11° C | 44% | 1011.7 hPa | 0 mm | 4.47 m/s, 33° | 906 W/m² | - |
| 1777998627 | 16.11° C | 44% | 1011.5 hPa | 0 mm | 3.13 m/s, 65° | 940 W/m² | - |
* Rain latest hour (hover to see other rain measurements)
** Current wind speed in m/s (hover to see current wind gust speed)